Regional Weather Roundup
Issued by NWS Goodland, KS

Home | Current Version | Previous Version | Text Only | Print | Product List | Glossary Off
Versions: 1 2 3 4 5 6 7 8 9 10 11 12 13 14 15 16 17 18 19 20 21 22 23 24 25 26 27 28 29 30 31 32 33 34 35 36 37 38 39 40 41 42 43 44 45 46 47 48 49 50

000
ASUS43 KGLD 062308
RWRGLD

GOODLAND FORECAST AREA HOURLY WEATHER ROUNDUP
NATIONAL WEATHER SERVICE GOODLAND KS
500 PM MDT MON JUL 06 2015

...OFFICIAL OBSERVATIONS...

CITY           SKY/WX    TMP DP  RH WIND       PRES   REMARKS
GOODLAND KS    CLOUDY    72  55  55 N21G26    30.12F
HILL CITY KS   PTSUNNY   80  59  48 N22G31    30.01F HAZE
IMPERIAL NEB   PTSUNNY   75  52  44 N15G23    30.14F
MCCOOK NEB     MOSUNNY   77  54  44 N21       30.07F HAZE
AKRON CO       CLOUDY    68  53  58 NE13      30.23S HAZE
BURLINGTON CO  PTSUNNY   72  55  55 N17G28    30.17F
LIMON CO       CLOUDY    64  53  67 N12       30.26F
$$

...UNOFFICIAL OBSERVATIONS...

CITY           SKY/WX    TMP DP  RH WIND       PRES   REMARKS
COLBY KS       CLOUDY    77  61  57 N17G25    30.09S
GOVE KS          N/A     77  32  19 MISG        N/A
NORTON KS      SUNNY     75  45  33 N23G30    30.02F HAZE
SHARON SPRINGS   N/A     72  60  65 N12G18      N/A
KIT CARSON CO    N/A     73  56  54 MISG        N/A
YUMA CO          N/A     71  53  53 NE10        N/A
$$


USA.gov is the U.S. government's official web portal to all federal, state and local government web resources and services.